Theta_e
350 349 350 350 350 352 350 352 352 351 351 350 351 351 351 350 350 350 349 350 349 350 350 350 349 349 348 349 347 346 346 346 347 348 347 347 346 347 347 348 348 348 347 348 348 348 348 347 347 346 347 346 346 346 349 348 347 346 345 342 342 339
350 349 349 350 350 351 351 351 352 352 352 350 350 350 351 348 350 348 348 348 349 349 348 348 347 348 348 348 348 346 346 346 347 347 347 346 346 347 347 347 347 347 347 348 347 349 350 348 347 347 346 346 347 348 349 348 348 346 344 343 342 339
349 350 349 349 348 350 350 352 349 349 348 349 349 350 345 347 347 346 348 347 348 349 347 347 347 347 346 346 347 347 346 346 346 346 346 346 346 346 346 347 347 346 347 347 349 346 347 348 350 348 347 348 348 348 349 349 347 347 345 342 342 338
349 351 349 348 349 350 350 351 349 350 349 350 350 347 345 346 345 345 343 346 348 348 348 348 348 349 348 347 349 347 346 345 345 345 346 346 345 346 346 345 346 346 348 348 345 342 346 348 349 350 351 349 346 348 348 348 345 346 346 341 341 337
348 349 349 349 349 349 350 349 348 348 349 349 348 348 346 347 345 345 346 347 347 348 347 347 347 347 346 347 347 346 347 345 346 346 345 345 346 346 347 344 346 347 344 343 340 342 343 347 346 349 350 349 349 349 349 348 346 345 345 343 341 337
349 349 349 349 349 349 350 348 348 347 346 347 347 347 347 347 346 346 347 346 347 348 347 345 346 346 345 347 345 342 343 344 343 343 343 342 340 344 341 342 342 341 342 342 343 343 343 344 345 347 346 348 348 349 349 347 347 346 346 344 341 337
347 347 348 348 350 349 348 349 348 347 346 345 346 347 346 346 347 346 346 346 346 345 345 345 343 343 343 346 344 343 343 344 344 342 339 341 341 341 340 341 341 342 343 341 342 342 342 343 343 343 347 347 349 348 348 347 347 345 345 343 340 337
347 348 350 347 348 346 347 348 349 347 347 344 345 345 345 346 347 346 347 348 345 345 343 343 344 343 343 344 344 345 345 343 343 342 340 343 343 339 341 341 344 341 340 341 340 342 340 342 343 344 345 347 348 349 349 346 346 345 344 344 341 337
349 348 349 348 346 346 346 347 348 347 345 347 346 345 345 346 346 345 348 347 347 344 342 342 344 344 344 344 344 345 345 343 343 343 342 344 344 343 342 343 343 340 341 340 340 342 340 342 343 344 343 344 346 347 348 347 345 342 342 342 341 338
347 346 346 348 345 345 345 345 345 346 346 347 346 347 348 344 344 345 344 346 346 345 344 341 343 344 342 343 345 346 345 344 341 341 342 342 343 342 341 341 341 340 337 339 338 341 340 342 341 342 343 344 346 347 348 346 344 342 342 344 342 340
347 348 346 345 346 345 345 344 344 345 345 345 345 346 345 344 345 344 345 347 346 345 345 343 343 344 344 343 345 345 344 345 344 343 342 342 344 343 342 341 339 337 338 337 336 340 341 341 341 340 342 343 347 348 347 347 345 342 342 344 342 342
347 347 346 345 346 345 344 344 345 344 345 345 347 345 342 343 344 343 344 347 346 345 346 343 343 344 345 343 343 343 343 343 343 343 342 341 343 343 340 337 336 338 340 339 339 341 342 340 341 340 341 342 345 347 345 346 344 342 342 343 342 341
350 346 346 344 343 344 344 344 344 342 343 343 345 344 342 342 344 345 345 346 347 346 345 344 343 344 345 344 344 344 343 343 343 343 344 343 343 343 340 337 337 337 339 339 340 341 340 342 341 341 341 342 346 344 345 346 345 344 342 342 341 340
346 347 346 345 345 344 344 343 343 343 343 343 343 343 343 343 343 343 344 344 345 345 344 343 344 344 344 344 344 344 342 342 342 344 343 343 339 341 340 337 336 336 336 336 338 340 338 339 339 340 342 343 345 347 346 346 345 344 343 342 342 343
345 345 346 346 345 348 345 342 341 342 342 344 343 341 341 341 341 342 342 342 343 344 345 345 344 343 344 345 344 344 342 341 343 343 341 341 339 341 342 339 338 335 336 334 336 339 339 339 339 341 343 343 343 343 347 346 346 344 342 343 344 342
346 346 345 347 347 343 342 343 343 342 342 342 340 341 340 341 341 342 342 343 342 343 344 344 344 343 344 344 342 343 342 343 343 342 341 341 340 339 341 340 337 335 334 332 332 336 338 338 339 339 342 342 341 343 344 344 345 343 343 343 342 344
346 346 346 347 345 342 342 341 341 340 340 342 341 340 340 342 342 342 341 341 342 342 342 342 344 343 345 344 343 343 342 344 343 341 342 340 339 339 340 340 339 338 338 333 332 335 334 336 339 340 340 341 341 342 344 343 343 345 342 342 342 341
345 346 347 344 343 342 343 343 341 340 340 339 341 340 341 341 341 340 340 341 342 342 342 342 343 343 345 345 343 343 343 344 343 341 341 340 339 340 340 340 340 340 338 336 333 335 334 335 337 338 339 338 340 339 341 342 342 341 343 342 342 341
345 345 346 347 346 346 345 342 341 340 340 340 340 340 341 341 341 342 340 342 342 342 342 342 342 343 344 343 343 343 342 343 343 342 342 340 339 340 339 339 339 340 340 338 335 336 335 335 335 336 336 339 341 340 341 342 342 342 342 343 341 340
344 345 345 346 345 342 341 341 339 340 338 338 338 338 340 340 342 340 340 340 340 341 341 342 342 343 344 343 343 342 342 342 343 343 341 340 339 339 340 339 339 340 339 338 337 336 336 336 335 337 337 338 339 340 338 340 341 340 342 344 343 342
345 347 344 342 341 340 339 339 341 338 336 337 337 338 338 340 339 339 339 339 340 339 341 341 341 342 342 343 343 343 342 342 343 342 341 341 342 341 341 340 338 339 338 336 335 337 337 337 335 335 338 338 338 339 339 339 338 339 340 342 343 342
346 345 344 343 343 341 340 339 337 337 336 337 337 336 337 339 340 340 341 340 339 339 340 340 342 342 343 344 344 343 342 341 342 342 342 343 342 342 342 340 340 337 337 335 334 335 337 335 331 330 328 329 333 337 338 338 336 338 339 340 342 343
344 346 346 345 344 342 342 342 340 339 339 339 342 341 340 341 341 339 341 341 339 339 339 339 341 342 343 342 343 343 342 342 342 343 342 341 342 341 340 339 339 336 333 336 336 338 337 337 328 331 333 330 326 327 333 334 337 337 339 340 341 340
345 346 346 345 343 345 344 344 344 343 342 341 340 341 343 343 342 341 339 340 339 339 339 338 339 340 340 341 343 342 342 343 343 344 342 341 341 340 341 340 339 338 336 332 332 334 337 338 330 331 325 326 327 328 325 328 331 334 337 339 339 339
344 344 344 344 344 344 344 342 342 343 343 340 341 339 340 339 339 339 338 338 338 338 338 337 339 339 339 340 341 341 341 344 344 344 343 341 340 340 341 340 340 338 338 334 332 335 337 337 337 338 331 327 325 324 325 328 333 334 337 335 337 338
345 344 343 343 343 342 340 340 338 336 336 335 335 335 334 335 335 336 335 338 338 338 338 338 338 338 337 339 340 341 342 343 343 343 343 340 340 340 341 339 340 339 338 338 337 334 333 337 337 340 339 336 334 327 327 329 330 325 337 338 338 337
345 344 343 345 343 340 339 339 339 338 338 335 334 336 339 340 339 337 339 337 336 339 338 338 338 338 339 339 340 341 342 343 343 344 343 342 340 341 340 339 340 340 340 339 338 334 334 334 337 339 338 339 339 339 336 332 328 329 325 333 335 335
344 345 344 345 344 341 339 339 339 340 339 337 336 337 340 341 342 340 339 340 340 338 339 339 339 339 339 340 340 340 342 343 342 342 341 340 340 342 341 341 340 341 341 341 340 337 335 335 332 333 338 338 338 339 338 337 335 331 328 326 331 335
344 344 344 345 343 342 341 340 339 338 338 338 339 339 341 341 341 342 340 341 341 340 339 340 340 340 340 339 339 339 340 341 342 341 341 340 341 341 342 341 340 340 341 340 343 341 338 337 337 334 337 337 336 335 336 337 336 336 330 329 328 329
343 343 344 344 342 343 342 342 340 339 338 337 338 338 341 340 340 342 340 340 341 341 340 339 340 341 341 340 340 340 339 339 340 340 340 341 342 342 342 343 343 343 343 342 342 342 340 340 340 339 338 337 335 335 334 334 334 335 335 334 328 328
342 343 344 343 343 342 342 342 341 340 339 339 339 338 338 339 340 340 339 340 341 341 341 339 341 341 341 341 341 341 339 339 340 341 340 342 341 342 343 343 343 345 343 342 341 342 342 342 341 340 339 338 336 336 334 333 333 335 335 333 331 330
341 343 344 343 343 343 342 341 342 341 340 340 340 339 338 338 339 339 339 339 341 342 342 341 341 341 341 341 340 340 341 341 340 341 342 342 342 342 343 343 343 343 343 344 342 341 341 340 340 340 341 340 338 340 338 338 337 338 336 335 334 332
338 342 342 343 342 343 342 342 342 342 342 342 340 340 339 338 339 339 339 341 341 339 340 340 341 341 341 341 340 340 341 340 340 341 343 343 342 342 342 342 342 343 342 341 342 341 338 339 339 337 337 340 340 339 339 340 341 339 339 339 338 332
329 341 342 342 342 342 343 343 344 343 343 342 341 341 341 338 340 340 341 342 342 340 339 340 342 342 343 342 341 341 342 341 341 342 342 344 342 343 343 342 343 342 342 342 341 341 340 341 341 341 341 339 339 338 339 341 342 341 340 338 336 333
329 333 341 342 341 341 342 343 343 344 343 343 341 342 341 342 341 340 341 342 343 342 341 341 342 344 345 343 342 342 342 342 342 341 343 343 343 344 344 344 343 343 344 343 343 342 341 341 338 338 341 339 340 340 339 340 342 342 341 340 338 338
328 331 338 341 341 340 342 342 343 343 344 344 344 343 342 341 340 341 342 341 342 343 343 343 344 345 345 344 343 342 342 343 344 344 345 345 345 344 345 345 343 343 344 344 343 343 342 342 341 341 340 340 340 339 340 340 341 341 341 342 341 340
325 332 334 341 341 341 342 342 343 344 344 345 343 342 342 342 341 343 344 343 342 343 344 344 345 346 346 345 344 344 342 343 344 345 346 346 345 346 345 343 342 342 342 343 342 341 342 341 341 341 341 340 339 338 339 339 339 339 340 341 341 341
Wind_Speed
14 17 15 15 13 13 14 15 14 15 14 15 16 17 17 18 17 16 17 16 15 13 13 12 13 12 14 12 12 11 12 11 10 10 11 11 12 11 11 10 8 7 8 9 9 10 10 10 10 10 10 10 10 7 3 3 3 3 3 3 3 7
13 17 15 13 10 11 13 15 14 13 13 14 15 16 15 14 15 13 15 14 12 11 10 10 11 12 11 12 12 13 12 11 10 10 10 12 13 12 11 9 9 9 8 10 13 9 10 11 11 11 11 10 8 4 3 3 2 3 3 3 3 10
15 14 16 14 11 12 14 13 15 14 12 15 14 15 14 14 13 13 14 13 11 10 10 10 10 11 10 13 12 14 13 12 11 11 11 12 13 12 11 10 10 10 10 11 10 7 7 8 8 12 11 8 6 4 3 3 3 3 2 2 6 13
16 17 15 13 11 12 12 13 12 13 12 12 13 13 14 14 13 13 13 12 10 11 10 9 12 13 12 11 12 14 13 13 12 11 12 10 13 12 12 11 9 10 9 9 8 6 6 7 8 9 7 6 6 3 4 3 3 3 3 3 7 13
17 15 15 12 12 11 13 13 13 13 12 12 12 12 12 13 13 14 14 11 12 11 11 10 10 10 10 10 11 10 10 9 9 9 13 9 9 10 10 9 8 9 8 8 6 5 6 6 7 7 6 6 4 4 3 3 2 3 3 2 9 10
17 17 15 13 12 12 13 12 12 13 13 12 13 13 12 12 13 13 13 13 12 11 11 10 11 11 11 11 11 10 10 9 10 10 11 8 9 10 10 9 9 9 7 6 5 4 5 5 6 6 5 5 4 4 3 2 2 2 3 3 9 10
15 16 18 15 12 12 12 12 12 12 13 13 13 14 13 13 13 13 13 13 12 12 12 11 11 12 12 11 11 10 10 9 10 9 10 8 9 10 9 9 8 8 6 6 6 6 6 5 5 5 5 5 4 4 3 3 3 3 3 3 9 10
16 16 14 16 14 13 12 12 12 12 12 12 13 13 13 13 12 13 13 12 12 12 12 12 11 12 12 11 11 10 10 10 9 9 9 8 9 9 9 8 7 8 7 7 7 7 6 5 4 5 5 5 5 4 3 3 2 2 3 3 8 9
17 18 15 14 14 12 13 13 12 12 13 10 11 11 12 13 12 13 14 14 13 12 12 12 12 12 11 12 11 11 10 10 10 9 9 8 8 8 8 7 8 8 7 7 6 6 5 5 5 5 5 5 5 4 4 4 3 4 3 2 4 11
15 16 16 15 12 12 13 13 14 13 12 11 12 11 11 11 11 12 13 14 14 12 12 11 11 11 12 12 11 11 11 10 10 10 10 8 8 8 8 7 8 8 8 7 7 6 6 6 5 5 5 5 5 4 4 4 4 3 4 4 3 9
16 15 15 16 14 12 11 12 13 11 12 11 12 11 11 11 12 12 12 15 15 14 12 11 11 12 11 12 11 11 11 11 10 10 10 9 8 8 8 7 8 8 7 8 7 6 6 6 6 6 6 5 5 5 5 4 4 4 4 4 3 6
16 14 15 15 14 13 12 12 12 12 12 11 11 10 11 10 11 11 12 13 13 13 12 11 11 12 12 11 11 12 12 11 12 11 10 10 9 9 8 8 9 8 7 7 7 6 6 5 6 6 6 6 6 5 5 4 5 5 4 4 3 4
15 18 17 16 14 13 11 11 11 12 11 10 10 11 11 10 10 11 11 13 14 14 12 11 12 13 12 12 12 12 12 12 11 11 10 12 11 8 8 8 8 8 7 7 7 7 7 6 6 5 5 6 5 6 5 5 4 4 5 5 4 4
12 14 17 15 12 11 10 10 9 10 10 10 10 10 10 11 11 10 10 11 12 14 13 12 12 12 11 11 12 12 12 11 11 12 11 11 11 9 9 9 9 8 8 8 8 7 7 7 6 6 5 6 5 5 5 5 5 4 4 5 5 4
10 12 15 15 14 11 12 12 11 9 9 10 11 10 10 11 10 10 10 10 11 12 13 13 12 11 12 11 12 12 12 11 11 11 11 11 11 9 9 10 9 9 8 8 8 8 7 7 6 6 6 6 5 5 5 5 4 5 5 5 5 5
14 14 14 14 12 8 7 6 7 9 10 11 11 11 10 10 11 10 11 11 14 14 14 14 13 12 12 12 12 12 12 11 12 11 11 10 11 10 9 9 10 10 9 9 8 8 7 7 7 7 6 6 6 5 5 5 5 5 5 5 6 5
15 15 14 13 13 12 11 12 12 11 13 12 12 11 11 11 11 11 11 12 12 13 14 14 13 13 12 13 12 11 12 12 12 11 11 11 11 11 10 9 9 10 9 9 9 9 9 7 7 7 7 7 7 7 6 5 5 5 5 6 6 6
14 13 12 14 14 14 12 10 11 12 13 14 14 12 11 11 11 11 11 11 12 13 13 14 14 13 12 13 12 11 11 13 12 11 11 11 11 11 10 11 10 9 9 9 9 9 9 8 7 7 7 8 7 6 6 5 5 5 5 6 6 7
14 14 12 12 14 12 12 11 11 12 12 13 12 12 11 10 10 10 11 12 12 12 12 14 14 14 13 13 12 11 11 13 12 11 12 12 11 12 11 11 12 10 9 9 9 9 9 8 8 7 7 8 7 8 6 5 5 6 6 6 6 7
15 14 14 13 13 14 14 14 14 14 13 13 12 12 12 11 9 9 10 11 12 11 12 13 14 14 13 13 12 12 11 12 12 12 12 12 12 11 13 13 13 11 10 9 8 8 9 8 7 7 7 6 6 6 8 7 7 7 7 7 7 7
15 15 15 15 16 15 15 15 12 12 12 13 12 12 11 11 11 10 11 11 11 11 12 13 14 14 13 13 12 12 12 12 12 12 12 12 12 12 12 12 11 9 10 10 9 9 9 8 7 7 5 6 6 6 8 8 9 8 8 7 7 7
13 15 17 17 16 16 15 16 15 15 14 12 13 13 13 13 12 11 12 12 12 12 13 13 13 14 14 14 13 11 11 11 12 12 12 12 12 12 12 12 10 10 11 11 9 11 9 9 9 8 7 6 7 7 8 8 10 9 9 9 8 8
13 15 17 17 15 15 15 15 14 13 15 14 13 13 13 12 12 13 12 13 12 13 14 14 14 14 13 14 13 12 11 10 12 11 11 11 11 13 12 13 13 11 11 10 9 9 10 11 8 8 7 6 8 8 8 9 10 11 10 10 9 10
13 14 14 17 18 17 14 15 14 12 13 12 11 11 12 12 12 13 14 14 14 14 15 14 15 15 14 14 14 13 13 12 13 12 11 11 12 13 13 13 13 13 11 11 11 10 11 12 9 9 9 8 6 6 7 9 9 10 12 12 11 11
14 13 14 14 12 11 9 13 12 10 9 11 9 10 11 12 13 13 14 14 15 15 15 15 14 16 15 14 15 14 14 12 12 13 11 11 12 13 14 13 13 12 13 11 10 9 10 11 12 9 7 7 7 6 8 4 4 5 8 10 12 12
14 12 14 17 13 10 10 12 13 13 13 14 13 14 15 16 14 14 14 13 15 16 17 15 14 15 16 15 15 15 14 13 13 12 11 12 12 12 14 14 14 13 13 13 10 10 10 9 11 10 10 8 5 4 3 5 5 5 7 6 6 9
15 14 15 15 17 13 13 13 17 17 17 17 15 15 14 13 12 12 11 13 12 14 16 16 14 14 15 16 15 15 14 13 13 12 12 12 12 13 13 14 12 13 12 11 10 10 10 10 8 10 11 10 10 5 4 4 5 4 5 7 6 6
14 15 15 15 17 17 16 14 17 17 15 15 16 13 13 12 12 11 12 13 12 13 15 15 15 15 15 16 15 15 15 15 14 14 13 13 13 12 12 12 13 13 12 11 12 10 10 9 11 10 12 12 11 10 10 10 9 7 6 6 6 6
16 16 16 19 18 19 16 16 15 17 16 16 14 12 9 10 11 12 14 13 13 13 14 16 16 16 15 16 15 15 16 16 15 15 14 13 13 13 14 14 13 13 13 12 11 10 9 10 10 10 10 11 11 10 10 10 9 9 8 7 8 6
18 16 16 19 18 17 18 18 17 18 19 15 10 9 10 11 12 12 13 14 12 12 12 13 15 16 15 16 16 15 15 16 16 15 14 15 14 13 14 14 14 14 13 13 11 11 11 10 10 10 11 10 10 10 10 9 9 9 9 10 9 8
17 16 17 18 19 18 17 17 17 19 20 18 15 13 11 12 12 12 14 14 13 13 12 12 13 15 17 17 16 16 15 15 14 14 15 15 15 14 14 13 13 14 14 15 12 12 12 12 10 10 11 9 10 10 9 9 9 8 8 7 8 9
16 18 17 17 19 20 18 19 17 19 20 18 18 13 15 15 15 16 16 15 14 13 13 13 13 13 15 17 15 14 15 14 14 14 15 14 14 14 13 14 13 13 12 14 14 12 11 11 13 11 11 9 10 9 9 9 8 8 8 8 8 8
16 17 18 18 19 20 19 19 19 20 21 18 18 17 16 16 16 16 16 15 14 15 14 13 13 14 14 17 15 14 15 15 13 13 13 14 13 15 14 13 13 14 13 14 13 14 12 13 13 12 11 10 9 10 10 9 8 8 8 7 7 7
16 16 18 19 20 21 21 19 17 18 19 19 19 18 15 17 15 13 14 15 15 14 14 14 13 13 13 15 14 13 14 15 15 15 15 14 14 14 14 13 13 13 14 13 13 14 13 13 12 13 11 10 10 10 10 9 9 9 8 8 8 8
15 16 18 20 19 19 18 19 17 17 17 15 18 15 14 11 11 12 13 15 14 10 10 11 11 12 13 14 14 14 15 15 16 16 15 13 12 13 13 13 12 14 12 12 13 13 12 13 13 14 13 12 10 10 10 10 9 9 9 9 9 8
15 16 17 20 20 19 19 17 19 20 19 18 14 14 14 12 12 12 12 12 13 12 9 9 10 11 12 13 13 14 15 15 16 16 14 14 13 13 13 13 12 13 14 11 13 15 13 13 13 14 14 13 12 11 10 10 10 9 10 8 8 8
16 15 17 19 21 22 19 18 18 20 17 16 17 19 17 17 16 12 11 10 11 11 10 8 8 9 12 13 13 14 16 15 15 15 15 14 14 14 14 14 13 13 14 13 13 15 13 13 13 13 13 15 13 12 11 11 10 10 10 9 9 8
Wind_Direction
175 184 184 184 184 178 176 175 175 171 169 166 164 164 165 164 163 164 165 165 166 172 170 169 170 170 159 167 167 165 160 161 160 154 152 154 154 155 158 157 153 154 160 156 158 158 158 160 161 165 165 171 174 200 204 144 151 127 113 123 137 102
185 183 182 185 183 184 173 181 184 175 178 174 173 171 170 175 174 173 173 168 178 179 177 169 177 168 173 166 167 165 169 165 161 156 155 156 155 156 159 152 154 158 159 164 167 173 166 165 167 170 175 178 192 212 185 151 145 128 113 145 111 115
180 184 180 182 189 184 177 183 188 183 183 179 180 182 181 181 180 178 180 180 186 187 186 177 178 176 181 170 162 164 167 167 164 158 158 158 158 157 156 158 158 159 168 175 182 183 167 161 170 176 181 186 220 204 158 158 160 115 144 82 94 130
180 177 180 185 188 187 186 184 190 184 185 184 184 189 185 189 185 185 184 185 190 186 189 185 174 176 177 169 160 163 167 168 166 164 158 160 158 157 157 158 159 162 181 188 193 174 171 169 166 180 189 186 213 168 172 170 168 130 133 166 114 139
181 180 176 183 185 185 189 188 191 189 187 185 187 190 192 193 192 191 190 190 192 193 189 188 181 177 189 181 173 172 175 176 174 171 174 171 171 158 174 170 164 186 190 196 196 178 171 168 173 180 184 196 185 175 169 165 174 141 142 126 111 144
182 181 181 182 185 186 188 190 189 192 191 188 191 191 196 193 194 194 196 192 194 193 193 193 183 189 192 191 179 185 179 182 179 178 186 179 181 170 187 178 179 188 196 200 188 186 185 170 177 183 185 176 181 171 180 154 150 155 135 127 123 148
187 184 184 185 184 187 191 191 188 189 193 193 193 194 197 195 196 194 198 194 195 193 195 193 187 191 198 190 193 188 187 183 183 183 186 190 180 177 191 181 183 189 188 195 193 186 181 192 180 185 178 174 180 174 173 162 161 161 134 152 129 156
189 184 184 187 186 189 192 194 192 191 197 195 193 195 199 198 193 194 198 196 195 198 195 194 189 191 199 196 197 190 192 187 188 185 184 194 181 183 190 185 182 187 186 189 194 191 187 176 194 199 177 178 177 177 177 164 167 151 141 173 136 158
186 185 183 188 186 192 194 196 193 193 198 188 198 198 199 196 196 195 197 199 197 200 197 195 190 191 193 198 197 194 193 193 194 193 181 195 186 185 189 183 185 190 185 186 192 190 184 178 192 199 189 185 180 171 171 177 179 170 176 168 164 148
187 191 183 182 194 197 199 198 198 196 197 192 198 199 191 197 198 195 195 199 198 202 199 196 191 191 191 194 197 196 195 194 197 196 191 194 193 190 189 187 188 191 185 186 189 184 191 179 193 207 198 191 175 175 171 181 183 188 180 181 161 140
183 187 192 188 188 200 200 201 202 198 199 201 198 200 198 200 198 199 196 197 197 200 199 197 194 193 190 193 197 195 198 197 195 195 195 196 196 195 192 192 193 192 189 190 186 174 202 175 191 208 199 199 178 174 173 181 194 187 202 177 173 151
180 187 197 197 192 195 204 202 207 203 202 201 196 204 202 202 204 202 199 196 202 198 199 195 196 195 195 193 195 196 198 198 199 195 197 198 193 197 196 197 197 196 196 193 184 177 198 184 194 209 191 201 187 181 175 176 202 182 207 191 184 178
179 186 194 199 197 202 201 205 210 210 206 204 198 205 205 202 204 204 202 196 200 202 199 195 194 198 195 195 197 197 197 200 201 199 196 201 194 193 198 197 196 196 192 196 189 181 191 190 198 204 215 198 195 191 176 179 193 194 200 201 196 185
184 187 189 191 197 199 199 213 221 218 215 205 205 209 211 207 207 207 201 200 198 201 201 201 195 197 198 198 199 199 200 199 203 201 197 199 199 194 198 195 191 193 190 198 192 186 187 194 195 203 214 210 205 199 184 189 189 193 204 211 204 200
188 189 188 187 185 170 191 195 205 218 219 216 210 212 213 213 212 214 209 199 203 205 200 200 199 197 200 200 198 200 200 200 201 202 201 199 201 196 198 194 192 194 187 202 197 188 192 191 195 201 210 220 211 199 198 193 196 199 195 212 215 206
188 192 189 188 178 167 190 202 198 206 215 219 218 214 214 214 213 211 214 211 204 205 202 200 198 197 200 200 199 199 200 199 199 200 203 197 205 199 196 196 194 196 188 199 200 190 194 194 192 200 205 220 220 212 211 199 198 208 207 203 211 212
189 187 184 183 178 184 192 200 200 205 209 212 214 214 212 210 213 213 212 214 208 204 203 201 199 198 200 201 200 200 201 199 198 202 204 202 206 206 197 194 193 196 193 196 200 195 193 196 193 200 204 206 223 216 223 216 206 210 221 213 213 213
199 191 183 183 186 194 193 195 205 210 209 210 209 212 215 208 207 210 213 214 210 205 203 201 200 199 202 201 202 202 198 199 196 202 205 205 207 207 203 199 196 193 195 198 200 198 195 194 195 193 205 211 219 225 226 227 229 213 220 220 218 228
204 191 188 181 183 187 188 192 202 207 207 212 213 215 216 215 208 206 209 212 211 207 203 202 200 200 201 200 202 203 202 198 199 200 205 206 204 206 204 200 201 190 197 201 204 201 201 194 197 196 200 201 216 228 236 240 242 230 220 229 225 225
202 198 185 183 182 189 194 195 200 203 206 209 213 213 215 218 211 212 209 211 211 211 207 204 202 200 200 202 201 200 201 199 202 200 203 205 202 203 202 199 203 191 191 200 211 203 199 197 197 199 211 200 210 230 233 231 235 237 228 223 225 225
198 197 189 186 186 192 195 199 199 201 206 206 209 211 213 218 217 215 215 211 210 212 211 205 204 200 200 202 204 202 202 199 203 203 203 205 203 204 203 204 202 198 190 198 204 206 197 195 190 192 192 213 224 226 242 242 232 232 229 228 228 224
198 198 196 193 190 193 197 197 195 201 202 203 202 205 208 209 212 213 213 213 211 214 213 207 206 203 199 201 202 203 200 199 201 203 204 204 203 204 201 204 202 201 201 197 204 202 192 191 198 200 191 201 228 222 228 230 236 229 230 224 222 220
205 205 198 196 194 193 195 195 195 199 199 205 208 207 209 209 209 209 209 213 212 213 212 210 205 203 200 201 201 203 199 201 205 203 203 201 199 203 203 202 202 203 200 201 205 200 195 200 198 198 200 211 218 225 206 225 231 235 228 228 224 225
209 213 209 198 197 195 190 194 201 207 207 211 209 208 212 211 208 208 209 210 212 212 211 212 207 204 204 201 201 201 200 203 205 205 206 201 202 204 202 205 204 208 206 198 202 198 197 196 216 182 202 209 218 221 233 214 220 221 222 222 223 224
208 199 205 197 192 187 179 196 198 202 196 203 209 202 207 209 209 208 211 211 211 211 210 211 208 207 205 203 202 203 204 203 204 203 205 202 204 207 205 207 206 207 206 205 196 192 196 193 211 215 213 198 216 221 235 247 197 215 205 216 221 221
207 197 199 197 188 176 182 184 190 192 196 200 201 199 202 205 203 205 211 214 212 210 210 209 206 205 206 203 201 201 202 206 203 200 203 209 210 207 206 206 206 207 204 208 205 188 190 192 205 222 234 239 257 282 234 228 223 218 169 227 224 225
212 200 202 198 195 188 193 192 196 198 201 200 203 209 208 201 199 201 207 211 208 211 211 208 206 204 206 203 202 201 200 206 206 199 201 208 209 207 205 208 207 207 210 202 205 197 188 184 194 221 225 235 244 239 233 236 218 247 246 194 229 232
216 211 204 203 197 197 196 196 200 202 205 205 207 208 209 206 203 194 202 207 205 208 210 208 206 204 203 202 200 200 200 202 207 206 204 207 210 204 205 206 207 207 211 208 207 205 189 187 194 205 215 223 229 236 239 243 252 268 269 269 206 218
226 216 205 204 202 199 200 199 198 204 205 209 204 205 203 209 206 204 208 204 208 208 209 208 206 204 203 201 197 200 201 202 205 207 207 209 208 206 204 204 201 206 208 209 207 211 203 195 197 206 199 218 227 229 230 232 242 239 248 246 251 226
229 221 212 204 201 200 203 206 205 207 208 209 203 206 208 201 204 203 207 203 201 205 204 207 206 202 201 202 197 197 201 203 205 208 210 209 203 206 204 206 205 207 208 212 208 208 215 212 205 211 210 210 213 219 227 230 223 228 232 245 261 264
235 226 217 209 198 203 208 210 212 211 210 209 203 204 205 209 199 200 208 205 201 203 202 201 205 205 201 200 199 199 204 203 202 206 210 209 206 206 204 205 209 206 209 212 212 211 215 223 223 219 219 219 221 218 220 221 220 216 229 239 243 242
243 230 223 212 204 205 210 216 216 214 213 211 207 202 207 207 205 204 208 207 204 202 203 201 196 202 204 203 200 201 203 206 204 204 208 209 209 206 207 208 210 211 211 212 217 216 217 223 227 229 227 229 229 231 227 227 225 223 226 238 243 257
255 234 222 215 208 207 213 218 217 217 218 215 210 207 209 209 206 206 205 204 204 208 203 203 200 204 205 205 202 201 204 207 207 204 203 205 206 207 208 209 211 212 215 215 216 219 221 224 226 230 231 229 232 233 234 228 230 231 233 240 242 259
273 246 225 217 216 217 215 217 216 218 219 217 216 213 214 215 207 203 204 203 205 208 205 204 199 200 203 200 201 202 206 209 211 208 205 203 205 208 208 209 210 212 215 219 219 218 223 225 227 230 235 237 231 231 233 232 228 228 229 228 231 236
285 263 234 220 214 216 222 220 218 216 217 220 217 211 213 211 206 198 202 206 208 200 200 202 203 203 202 201 194 199 203 205 208 208 200 197 200 202 205 210 211 213 214 218 219 218 220 221 224 227 229 234 237 235 233 231 231 232 229 230 236 238
293 273 249 222 215 213 219 224 222 219 220 219 217 215 212 206 206 201 193 200 206 202 196 202 205 197 194 202 193 199 204 205 206 207 199 195 196 201 203 208 213 214 216 215 219 218 220 220 224 228 229 231 236 239 233 231 234 233 239 241 241 239
304 281 257 233 219 216 217 223 225 222 220 223 222 221 218 213 209 197 188 192 199 192 192 196 205 204 190 198 201 201 208 208 208 209 204 202 204 207 209 214 218 218 219 217 220 222 220 223 225 226 230 232 234 237 239 236 234 236 235 237 241 242